[[{"header":{"parameterUnit":"m.s-1","parameterCategory":1,"la1":30.2991,"la2":30.254,"lo1":-89.0895,"lo2":-89.0444,"dy":0.0017,"dx":0.0017,"nx":28,"ny":28,"refTime":"2024-07-08T03:00:00:Z","depth":0,"parameterNumber":2,"parameterNumberName":"U-component_of_WINDS"},"data":[0,0,0,0,0,0,0,0,0,0,0,0,0,0,0,0,0,0,0,0,0,0,0,0,0,0,0,0,0,0,0,0,0,0,0,0,0,0,0,0,0,0,0,0,0,0,0,0,0,0,0,0,0,0,0,0,0,0,4.2809,4.281,0,4.2884,4.2885,4.2886,4.2837,4.2834,4.2832,4.283,4.2906,4.291,4.2914,0,0,0,0,0,0,0,0,0,0,0,0,0,4.2622,4.2626,4.2809,4.281,4.2811,4.2884,4.2885,4.2886,4.2837,4.2834,4.2831,4.2829,4.2905,4.291,4.2915,0,0,0,0,0,0,0,0,0,0,0,0,0,4.2701,4.2627,4.2809,4.2796,4.2795,4.2884,4.2885,4.2886,4.2838,4.2834,4.2831,4.2828,4.2903,4.2909,4.2916,4.3022,0,0,4.2935,4.2937,0,0,0,0,0,0,0,0,4.2697,4.2708,4.2797,4.2797,4.2796,4.2848,4.2847,4.2932,4.2838,4.2821,4.283,4.2826,4.289,4.2897,4.2918,4.3025,4.3029,4.2935,4.2939,4.2941,4.2943,0,0,0,0,0,0,0,4.2691,4.2704,4.2839,4.2798,4.2798,4.2785,4.2792,4.2863,4.2874,4.2823,4.2819,4.2829,4.2889,4.2912,4.292,4.303,4.2935,4.294,4.2944,4.2947,4.3224,4.3227,0,0,0,0,0,0,4.2687,4.27,4.2837,4.2841,4.2737,4.2791,4.2799,4.2835,4.2873,4.2875,4.2832,4.2826,4.2903,4.2912,4.2922,4.3046,4.2941,4.2947,4.2951,4.322,4.3225,4.3228,0,0,0,0,0,0,4.2683,4.27,4.2833,4.277,4.2786,4.2798,4.2838,4.2838,4.2861,4.2879,4.2881,4.2854,4.2901,4.2913,4.2996,4.3048,4.295,4.2956,4.3216,4.3221,4.3227,4.3297,0,0,0,0,0,0,4.2678,4.2699,4.274,4.2771,4.2789,4.2908,4.2841,4.2842,4.2872,4.2866,4.2901,4.2903,4.2899,4.2987,4.3003,4.3055,4.2961,4.3211,4.3218,4.3225,4.329,4.3304,4.3316,0,0,0,0,0,4.2672,4.2757,4.2742,4.2759,4.2841,4.2911,4.2921,4.2915,4.2877,4.2917,4.2928,4.2902,4.304,4.2996,4.3013,4.3068,4.3208,4.3216,4.3224,4.3284,4.3301,4.3316,0,0,0,0,0,0,4.2733,4.2761,4.2745,4.2843,4.2875,4.2902,4.2954,4.2934,4.2977,4.2969,4.296,4.2968,4.3054,4.307,4.302,4.3171,4.3118,4.313,4.3158,4.3174,4.3187,4.3181,4.2966,0,0,0,0,0,4.2758,4.2812,4.2834,4.2919,4.2935,4.2942,4.2972,4.2964,4.2997,4.301,4.3027,4.3059,4.3109,4.3143,4.319,4.3292,4.3297,4.3338,4.3351,4.3362,4.3372,4.3423,4.3441,4.3255,4.3255,4.3255,0,0,4.281,4.2832,4.2867,4.2932,4.2955,4.301,4.2954,4.3016,4.3056,4.3019,4.3098,4.3112,4.3147,4.3239,4.328,4.3254,4.3424,4.3372,4.338,4.3385,4.3433,4.3451,4.3467,4.3261,4.326,4.3259,0,0,4.2932,4.2956,4.3027,4.3052,4.3088,4.3091,4.3108,4.3138,4.3146,4.3224,4.3197,4.3245,4.3333,4.3357,4.3382,4.3511,4.3487,4.3527,4.3595,4.3645,4.366,4.3673,4.3716,4.3732,4.3537,4.3537,4.3537,0,4.2992,4.3075,4.3067,4.313,4.3158,4.3126,4.3198,4.3222,4.3272,4.3291,4.3261,4.3368,4.339,4.3486,4.3517,4.3539,4.3556,4.3522,4.3658,4.3671,4.3683,4.3724,4.3741,4.3542,4.3541,4.3541,4.354,0,4.3146,4.3204,4.3257,4.3305,4.3339,4.3406,4.3407,4.3442,4.3431,4.3437,4.3516,4.3541,4.3591,4.3613,4.3604,4.3707,4.369,4.366,4.3606,4.3705,4.3744,4.376,4.3548,4.3546,4.3545,4.3544,0,0,4.331,4.335,4.337,4.339,4.3426,4.347,4.3535,4.3583,4.3613,4.3648,4.37,4.3774,4.3745,4.3772,4.3765,4.381,4.3907,4.3774,4.3774,4.3796,4.4019,4.404,4.4059,4.3892,4.3895,4.3897,4.4015,0,4.3433,4.3545,4.3538,4.3644,4.3695,4.3665,4.3721,4.3748,4.3755,4.3799,4.3807,4.3858,4.3818,4.3834,4.3877,4.3886,4.3951,4.3878,4.3939,4.3941,4.3929,4.4079,4.4102,4.4213,4.4031,4.4033,4.4035,0,4.3591,4.363,4.374,4.3766,4.3787,4.3838,4.388,4.3923,4.3953,4.3955,4.3984,4.3969,4.4032,4.3977,4.4063,4.4013,4.4038,4.4046,4.405,4.4054,4.3993,4.4085,4.4248,4.4264,4.4059,4.4057,4.4056,0,4.3696,4.3776,4.3852,4.387,4.3903,4.3938,4.3953,4.398,4.4008,4.4046,4.4064,4.4108,4.4132,4.4166,4.4162,4.4123,4.4249,4.4195,4.425,4.425,4.4277,4.4275,4.4444,4.4296,4.4296,4.4296,4.4295,0,4.3833,4.3901,4.3899,4.3945,4.402,4.4011,4.4084,4.4096,4.4119,4.4165,4.4143,4.4187,4.418,4.4224,4.4221,4.4291,4.4303,4.4305,4.4303,4.4306,4.4305,4.4321,4.4312,4.43,4.4299,4.4298,4.4298,0,4.3963,4.3964,4.4044,4.4068,4.4075,4.4129,4.4148,4.4191,4.4195,4.4255,4.4268,4.4275,4.4325,4.4325,4.4383,4.4381,4.4465,4.4456,4.4455,4.4453,4.4507,4.4501,4.469,4.4713,4.4553,4.4554,4.4556,0,4.4049,4.41,4.4128,4.4158,4.4175,4.4223,4.4252,4.4244,4.4275,4.4311,4.4349,4.4397,4.4435,4.4516,4.4526,4.4569,4.4559,4.4622,4.4565,4.4565,4.4557,4.4553,4.4557,4.4633,4.4634,4.4636,4.4637,0,4.42,4.4198,4.4241,4.4283,4.4317,4.435,4.4381,4.4406,4.4401,4.4437,4.4487,4.4517,4.4574,4.4621,4.4662,4.4677,4.4656,4.4655,4.467,4.4672,4.4669,4.4669,4.4483,4.465,4.4649,4.4648,4.4647,4.4647,4.4309,4.4352,4.4378,4.4425,4.4447,4.4475,4.4516,4.4525,4.4567,4.4613,4.4606,4.4662,4.4687,4.474,4.4758,4.4801,4.4778,4.4801,4.4806,4.4811,4.4816,4.4663,4.4809,4.4808,4.4808,4.4808,4.4807,0,4.4458,4.4472,4.4516,4.4558,4.4595,4.4572,4.4603,4.4635,4.4684,4.471,4.4747,4.4804,4.4849,4.4861,4.4904,4.4936,4.4927,4.4947,4.4944,4.4947,4.4834,4.4816,4.4953,4.4953,4.4953,4.4953,4.4953,4.4953,4.4539,4.461,4.461,4.469,4.4704,4.4759,4.4778,4.4803,4.4824,4.4888,4.4925,4.4932,4.4952,4.4996,4.5035,4.5037,4.5053,4.5077,4.5075,4.497,4.4955,4.4941,4.4924,4.5081,4.5081,4.5183,4.5184,4.5185]},{"header":{"parameterUnit":"m.s-1","parameterCategory":1,"la1":30.2991,"la2":30.254,"lo1":-89.0895,"lo2":-89.0444,"dy":0.0017,"dx":0.0017,"nx":28,"ny":28,"refTime":"2024-07-08T03:00:00:Z","depth":0,"parameterNumber":3,"parameterNumberName":"V-component_of_WINDS"},"data":[0,0,0,0,0,0,0,0,0,0,0,0,0,0,0,0,0,0,0,0,0,0,0,0,0,0,0,0,0,0,0,0,0,0,0,0,0,0,0,0,0,0,0,0,0,0,0,0,0,0,0,0,0,0,0,0,0,0,6.6635,6.6635,0,6.6661,6.6661,6.6662,6.6626,6.6624,6.6623,6.6622,6.6645,6.6647,6.6649,0,0,0,0,0,0,0,0,0,0,0,0,0,6.6548,6.655,6.6635,6.6635,6.6635,6.6661,6.6662,6.6662,6.6626,6.6624,6.6623,6.6621,6.6645,6.6647,6.6649,0,0,0,0,0,0,0,0,0,0,0,0,0,6.6581,6.6551,6.6635,6.6621,6.662,6.6661,6.6662,6.6662,6.6626,6.6624,6.6622,6.6621,6.6644,6.6647,6.665,6.6705,0,0,6.6658,6.6659,0,0,0,0,0,0,0,0,6.6579,6.6584,6.6622,6.6622,6.6621,6.6638,6.664,6.6676,6.6627,6.6624,6.6622,6.662,6.6644,6.6647,6.6656,6.6706,6.6707,6.6658,6.666,6.6661,6.6662,0,0,0,0,0,0,0,6.6577,6.6583,6.6645,6.6623,6.6622,6.6611,6.6614,6.6646,6.6644,6.6624,6.6621,6.6625,6.6643,6.6654,6.6656,6.6707,6.6658,6.666,6.6662,6.6663,6.6802,6.6804,0,0,0,0,0,0,6.6577,6.6581,6.6644,6.6646,6.6595,6.6615,6.6617,6.6634,6.6644,6.6644,6.6627,6.6623,6.665,6.6653,6.6657,6.6721,6.6661,6.6664,6.6665,6.68,6.6802,6.6804,0,0,0,0,0,0,6.6575,6.6583,6.6643,6.6613,6.662,6.6618,6.6637,6.6636,6.6646,6.6646,6.6645,6.6638,6.6648,6.6653,6.6693,6.6721,6.6665,6.6667,6.6797,6.68,6.6803,6.685,0,0,0,0,0,0,6.6573,6.6583,6.6605,6.6614,6.6622,6.668,6.6639,6.6638,6.6651,6.6647,6.6656,6.6656,6.6647,6.6689,6.6696,6.6724,6.6669,6.6795,6.6799,6.6802,6.6846,6.6854,6.6861,0,0,0,0,0,6.657,6.6617,6.6606,6.6614,6.665,6.6682,6.6686,6.6677,6.6654,6.6675,6.6675,6.6655,6.6717,6.6694,6.6701,6.673,6.6793,6.6797,6.6802,6.6842,6.6853,6.6861,0,0,0,0,0,0,6.6611,6.6618,6.6606,6.6658,6.667,6.6676,6.6703,6.6688,6.6706,6.6701,6.6687,6.6689,6.6732,6.6735,6.6708,6.6783,6.6751,6.6757,6.6779,6.6789,6.6797,6.6794,6.6672,0,0,0,0,0,6.6626,6.6653,6.6657,6.6702,6.6708,6.6705,6.6718,6.671,6.6721,6.6726,6.6728,6.6739,6.6761,6.6775,6.6795,6.6846,6.6847,6.687,6.6878,6.6884,6.6889,6.6914,6.6924,6.6819,6.6819,6.6819,0,0,6.6657,6.6664,6.6682,6.671,6.6718,6.6745,6.6709,6.6739,6.6758,6.673,6.6767,6.677,6.6781,6.6826,6.6846,6.683,6.6918,6.689,6.6895,6.6897,6.692,6.693,6.6939,6.6822,6.6822,6.6821,0,0,6.6726,6.6736,6.6773,6.6782,6.6795,6.6792,6.6801,6.6809,6.681,6.6848,6.6827,6.6848,6.6887,6.6894,6.6904,6.6975,6.6957,6.6982,6.7022,6.7047,6.7055,6.7062,6.7086,6.7095,6.6987,6.6987,6.6987,0,6.6763,6.6803,6.6793,6.6825,6.6837,6.6813,6.685,6.6858,6.6877,6.6885,6.6867,6.6914,6.6919,6.6965,6.6983,6.6991,6.6999,6.698,6.7055,6.7062,6.7068,6.7091,6.71,6.699,6.699,6.699,6.6989,0,6.6846,6.6874,6.6903,6.6922,6.6937,6.6971,6.6964,6.6981,6.6971,6.6969,6.7007,6.7013,6.7033,6.7043,6.7034,6.7087,6.7077,6.7057,6.7024,6.7081,6.7102,6.7111,6.6994,6.6993,6.6992,6.6992,0,0,6.6942,6.6955,6.6965,6.6973,6.6985,6.7006,6.7038,6.7058,6.7071,6.7085,6.711,6.7142,6.7124,6.7134,6.7125,6.7147,6.7201,6.7124,6.7124,6.7137,6.7258,6.7271,6.7282,6.7189,6.7191,6.7192,6.7256,0,6.701,6.7066,6.7057,6.7111,6.7135,6.7113,6.714,6.715,6.7149,6.7168,6.7167,6.7189,6.7164,6.717,6.7191,6.719,6.7224,6.7185,6.7211,6.7212,6.7207,6.7293,6.7308,6.7368,6.7265,6.7266,6.7267,0,6.7097,6.7114,6.717,6.7177,6.7187,6.7212,6.7229,6.7248,6.7258,6.7256,6.7267,6.7253,6.7283,6.7251,6.7291,6.7264,6.7274,6.7275,6.7277,6.7278,6.7242,6.7294,6.7387,6.7395,6.728,6.7279,6.7278,0,6.7159,6.7196,6.7233,6.7241,6.725,6.7268,6.7272,6.728,6.7293,6.7307,6.7315,6.7332,6.7342,6.7355,6.7346,6.7324,6.7387,6.7354,6.7384,6.7384,6.7397,6.7396,6.7491,6.7406,6.7406,6.7406,6.7406,0,6.7235,6.7269,6.7261,6.7284,6.7321,6.7311,6.7347,6.7349,6.7356,6.7378,6.736,6.738,6.7368,6.7387,6.738,6.7413,6.7418,6.7415,6.7413,6.7416,6.7416,6.7421,6.7416,6.7408,6.7408,6.7407,6.7407,0,6.731,6.7306,6.7345,6.7351,6.7353,6.738,6.7384,6.7405,6.7402,6.743,6.7436,6.7431,6.7453,6.7446,6.7469,6.7464,6.7505,6.7498,6.7502,6.75,6.7529,6.7526,6.7629,6.7642,6.7551,6.7552,6.7552,0,6.7358,6.7384,6.7392,6.7406,6.7412,6.7434,6.7446,6.7436,6.745,6.7462,6.7481,6.7501,6.7516,6.7551,6.7549,6.7566,6.7558,6.7593,6.7561,6.7563,6.7557,6.7555,6.7556,6.7599,6.7601,6.7601,6.7602,0,6.7443,6.7439,6.7458,6.7476,6.7492,6.7505,6.7517,6.7529,6.7519,6.7535,6.7557,6.7569,6.7592,6.7612,6.7627,6.763,6.7614,6.7613,6.762,6.7623,6.7623,6.7622,6.7518,6.761,6.7609,6.7609,6.7608,6.7608,6.7504,6.7525,6.7534,6.7556,6.7564,6.7575,6.7594,6.7594,6.7613,6.7631,6.7624,6.7649,6.7656,6.7675,6.768,6.7698,6.7685,6.7696,6.7698,6.7701,6.7704,6.7622,6.7701,6.7701,6.7701,6.7701,6.7701,0,6.7586,6.7591,6.7611,6.7628,6.7644,6.7629,6.7641,6.7655,6.7677,6.7686,6.7702,6.7726,6.7745,6.7744,6.7761,6.7776,6.7769,6.778,6.7778,6.7779,6.7716,6.7707,6.7786,6.7786,6.7786,6.7786,6.7786,6.7786,6.7631,6.7665,6.7663,6.7701,6.7705,6.7729,6.7737,6.7747,6.7754,6.7782,6.7797,6.7797,6.7802,6.7819,6.7835,6.7834,6.784,6.7854,6.7851,6.7792,6.7784,6.7775,6.7767,6.7856,6.7856,6.7912,6.7912,6.7913]}]]